Time,TemperatureF,DewpointF,PressureIn,WindDirection,WindDirectionDegrees,WindSpeedMPH,WindSpeedGustMPH,Humidity,HourlyPrecipIn,Conditions,Clouds,dailyrainin,SoftwareType,DateUTC
2013-09-03 00:00:00,71.4,71.1,29.75,SW,233,0.0,4.0,99,0.00,,OVC038,0.19,VWS V14.01,2013-09-03 04:00:00,
2013-09-03 00:01:00,71.4,71.1,29.75,WSW,246,2.0,4.0,99,0.00,,,0.00,VWS V14.01,2013-09-03 04:01:00,
2013-09-03 00:06:00,71.4,71.1,29.75,West,270,2.0,4.0,99,0.00,,,0.00,VWS V14.01,2013-09-03 04:06:00,
2013-09-03 00:10:00,71.4,71.1,29.76,WSW,257,1.0,4.0,99,0.00,,OVC038,0.00,VWS V14.01,2013-09-03 04:10:00,
2013-09-03 00:11:00,71.4,71.1,29.75,WSW,254,1.0,3.0,99,0.00,,,0.00,VWS V14.01,2013-09-03 04:11:00,
2013-09-03 00:16:00,71.4,71.1,29.75,SSW,212,1.0,3.0,99,0.00,,,0.00,VWS V14.01,2013-09-03 04:16:00,
2013-09-03 00:20:00,71.4,71.1,29.75,SW,219,3.0,4.0,99,0.00,,OVC038,0.00,VWS V14.01,2013-09-03 04:20:00,
2013-09-03 00:21:00,71.4,71.1,29.75,WSW,250,1.0,3.0,99,0.00,,,0.00,VWS V14.01,2013-09-03 04:21:00,
2013-09-03 00:26:00,71.4,71.1,29.75,West,278,1.0,3.0,99,0.00,,,0.00,VWS V14.01,2013-09-03 04:26:00,
2013-09-03 00:30:00,71.4,71.1,29.75,West,261,3.0,3.0,99,0.00,,OVC038,0.00,VWS V14.01,2013-09-03 04:30:00,
2013-09-03 00:31:00,71.4,71.1,29.75,SSE,147,0.0,3.0,99,0.00,,,0.00,VWS V14.01,2013-09-03 04:31:00,
2013-09-03 00:36:00,71.4,71.1,29.75,WNW,287,2.0,4.0,99,0.00,,,0.00,VWS V14.01,2013-09-03 04:36:00,
2013-09-03 00:40:00,71.4,71.1,29.76,WSW,250,1.0,4.0,99,0.00,,OVC038,0.00,VWS V14.01,2013-09-03 04:40:00,
2013-09-03 00:41:00,71.4,71.1,29.76,WSW,256,3.0,4.0,99,0.00,,,0.00,VWS V14.01,2013-09-03 04:41:00,
2013-09-03 00:46:00,71.4,71.1,29.76,West,270,2.0,4.0,99,0.00,,,0.00,VWS V14.01,2013-09-03 04:46:00,
2013-09-03 00:50:00,71.4,71.1,29.76,WSW,256,2.0,5.0,99,0.00,,OVC038,0.00,VWS V14.01,2013-09-03 04:50:00,
2013-09-03 00:51:00,71.3,71.0,29.76,WSW,240,2.0,3.0,99,0.00,,,0.00,VWS V14.01,2013-09-03 04:51:00,
2013-09-03 00:56:00,71.3,71.0,29.75,SW,218,1.0,3.0,99,0.00,,,0.00,VWS V14.01,2013-09-03 04:56:00,
2013-09-03 01:00:00,71.4,71.1,29.75,SSE,162,1.0,4.0,99,0.00,,OVC038,0.00,VWS V14.01,2013-09-03 05:00:00,
2013-09-03 01:01:00,71.3,71.0,29.75,SW,228,2.0,2.0,99,0.00,,,0.00,VWS V14.01,2013-09-03 05:01:00,
2013-09-03 01:06:00,71.3,71.0,29.75,South,177,2.0,4.0,99,0.00,,,0.00,VWS V14.01,2013-09-03 05:06:00,
2013-09-03 01:10:00,71.3,71.0,29.75,West,281,3.0,4.0,99,0.00,,OVC038,0.00,VWS V14.01,2013-09-03 05:10:00,
2013-09-03 01:11:00,71.3,71.0,29.75,SW,236,0.0,3.0,99,0.00,,,0.00,VWS V14.01,2013-09-03 05:11:00,
2013-09-03 01:16:00,71.3,71.0,29.75,South,181,1.0,5.0,99,0.00,,,0.00,VWS V14.01,2013-09-03 05:16:00,
2013-09-03 01:20:00,71.3,71.0,29.75,SW,226,0.0,5.0,99,0.00,,OVC038,0.00,VWS V14.01,2013-09-03 05:20:00,
2013-09-03 01:21:00,71.2,70.9,29.74,SSE,162,0.0,0.0,99,0.00,,,0.00,VWS V14.01,2013-09-03 05:21:00,
2013-09-03 01:26:00,71.2,70.9,29.74,SSW,208,1.0,4.0,99,0.00,,,0.00,VWS V14.01,2013-09-03 05:26:00,
2013-09-03 01:30:00,71.2,70.9,29.74,SSW,205,0.0,4.0,99,0.00,,OVC038,0.00,VWS V14.01,2013-09-03 05:30:00,
2013-09-03 01:31:00,71.2,70.9,29.74,SSE,166,1.0,2.0,99,0.00,,,0.00,VWS V14.01,2013-09-03 05:31:00,
2013-09-03 01:36:00,71.2,70.9,29.75,SW,219,3.0,3.0,99,0.00,,,0.00,VWS V14.01,2013-09-03 05:36:00,
2013-09-03 01:40:00,71.1,70.8,29.75,SW,231,1.0,5.0,99,0.00,,OVC038,0.00,VWS V14.01,2013-09-03 05:40:00,
2013-09-03 01:41:00,71.1,70.8,29.74,SE,143,1.0,3.0,99,0.00,,,0.00,VWS V14.01,2013-09-03 05:41:00,
2013-09-03 01:46:00,71.1,70.8,29.74,ESE,114,3.0,5.0,99,0.00,,,0.00,VWS V14.01,2013-09-03 05:46:00,
2013-09-03 01:50:00,71.1,70.8,29.74,WNW,298,0.0,5.0,99,0.00,,OVC038,0.00,VWS V14.01,2013-09-03 05:50:00,
2013-09-03 01:51:00,71.0,70.7,29.74,SW,229,4.0,6.0,99,0.00,,,0.00,VWS V14.01,2013-09-03 05:51:00,
2013-09-03 01:56:00,71.0,70.7,29.74,SW,218,2.0,6.0,99,0.00,,,0.00,VWS V14.01,2013-09-03 05:56:00,
2013-09-03 02:00:00,71.0,70.7,29.74,WSW,250,1.0,6.0,99,0.00,,OVC038,0.00,VWS V14.01,2013-09-03 06:00:00,
2013-09-03 02:01:00,71.0,70.7,29.74,WSW,247,0.0,1.0,99,0.00,,,0.00,VWS V14.01,2013-09-03 06:01:00,
2013-09-03 02:06:00,70.9,70.6,29.74,WSW,256,2.0,4.0,99,0.00,,,0.00,VWS V14.01,2013-09-03 06:06:00,
2013-09-03 02:10:00,70.9,70.6,29.74,West,271,1.0,4.0,99,0.00,,OVC038,0.00,VWS V14.01,2013-09-03 06:10:00,
2013-09-03 02:11:00,70.9,70.6,29.74,WSW,255,0.0,2.0,99,0.00,,,0.00,VWS V14.01,2013-09-03 06:11:00,
2013-09-03 02:16:00,70.8,70.5,29.73,SW,228,2.0,7.0,99,0.00,,,0.00,VWS V14.01,2013-09-03 06:16:00,
2013-09-03 02:20:00,70.8,70.5,29.73,South,189,1.0,7.0,99,0.00,,OVC038,0.00,VWS V14.01,2013-09-03 06:20:00,
2013-09-03 02:21:00,70.8,70.5,29.73,SSW,205,2.0,3.0,99,0.00,,,0.00,VWS V14.01,2013-09-03 06:21:00,
2013-09-03 02:26:00,70.7,70.4,29.73,NW,305,1.0,3.0,99,0.00,,,0.00,VWS V14.01,2013-09-03 06:26:00,
2013-09-03 02:30:00,70.7,70.4,29.73,SSE,166,1.0,4.0,99,0.00,,OVC038,0.00,VWS V14.01,2013-09-03 06:30:00,
2013-09-03 02:31:00,70.7,70.4,29.73,South,191,2.0,2.0,99,0.00,,,0.00,VWS V14.01,2013-09-03 06:31:00,
2013-09-03 02:36:00,70.7,70.4,29.73,WNW,297,0.0,4.0,99,0.00,,,0.00,VWS V14.01,2013-09-03 06:36:00,
2013-09-03 02:40:00,70.6,70.3,29.73,WSW,254,4.0,5.0,99,0.00,,OVC038,0.00,VWS V14.01,2013-09-03 06:40:00,
2013-09-03 02:41:00,70.6,70.3,29.73,West,270,1.0,4.0,99,0.00,,,0.00,VWS V14.01,2013-09-03 06:41:00,
2013-09-03 02:46:00,70.6,70.3,29.73,West,272,2.0,4.0,99,0.00,,,0.00,VWS V14.01,2013-09-03 06:46:00,
2013-09-03 02:50:00,70.6,70.3,29.73,West,280,1.0,4.0,99,0.00,,OVC038,0.00,VWS V14.01,2013-09-03 06:50:00,
2013-09-03 02:51:00,70.6,70.3,29.73,West,263,2.0,3.0,99,0.00,,,0.00,VWS V14.01,2013-09-03 06:51:00,
2013-09-03 02:56:00,70.6,70.3,29.72,SW,235,1.0,3.0,99,0.00,,,0.00,VWS V14.01,2013-09-03 06:56:00,
2013-09-03 03:00:00,70.6,70.3,29.72,SSW,201,2.0,3.0,99,0.00,,OVC038,0.00,VWS V14.01,2013-09-03 07:00:00,
2013-09-03 03:01:00,70.5,70.2,29.72,SSW,201,1.0,3.0,99,0.00,,,0.00,VWS V14.01,2013-09-03 07:01:00,
2013-09-03 03:10:00,70.4,70.1,29.72,SW,226,0.0,4.0,99,0.00,,OVC038,0.00,VWS V14.01,2013-09-03 07:10:00,
2013-09-03 03:15:00,70.4,70.1,29.71,SSW,208,3.0,6.0,99,0.00,,,0.00,VWS V14.01,2013-09-03 07:15:00,
2013-09-03 03:20:00,70.4,70.1,29.71,SW,228,2.0,3.0,99,0.00,,,0.00,VWS V14.01,2013-09-03 07:20:00,
2013-09-03 03:25:00,70.3,70.0,29.71,South,184,2.0,4.0,99,0.00,,,0.00,VWS V14.01,2013-09-03 07:25:00,
2013-09-03 03:30:00,70.3,70.0,29.71,SSW,205,2.0,2.0,99,0.00,,,0.00,VWS V14.01,2013-09-03 07:30:00,
2013-09-03 03:35:00,70.3,70.0,29.71,SW,225,2.0,3.0,99,0.00,,,0.00,VWS V14.01,2013-09-03 07:35:00,
2013-09-03 03:40:00,70.2,69.9,29.71,SW,222,3.0,5.0,99,0.00,,,0.00,VWS V14.01,2013-09-03 07:40:00,
2013-09-03 03:45:00,70.1,69.8,29.70,SSW,204,1.0,5.0,99,0.00,,,0.00,VWS V14.01,2013-09-03 07:45:00,
2013-09-03 03:50:00,70.0,69.7,29.71,WNW,291,1.0,2.0,99,0.00,,,0.00,VWS V14.01,2013-09-03 07:50:00,
2013-09-03 03:55:00,70.0,69.7,29.70,ESE,121,3.0,6.0,99,0.00,,,0.00,VWS V14.01,2013-09-03 07:55:00,
2013-09-03 04:00:00,69.9,69.6,29.70,SSW,201,1.0,4.0,99,0.00,,,0.00,VWS V14.01,2013-09-03 08:00:00,
2013-09-03 04:05:00,69.9,69.6,29.71,SW,225,1.0,6.0,99,0.00,,,0.00,VWS V14.01,2013-09-03 08:05:00,
2013-09-03 04:10:00,69.9,69.6,29.70,South,179,2.0,3.0,99,0.00,,,0.00,VWS V14.01,2013-09-03 08:10:00,
2013-09-03 04:15:00,69.9,69.6,29.70,SW,215,2.0,7.0,99,0.00,,,0.00,VWS V14.01,2013-09-03 08:15:00,
2013-09-03 04:20:00,69.9,69.6,29.70,SE,143,0.0,3.0,99,0.00,,,0.00,VWS V14.01,2013-09-03 08:20:00,
2013-09-03 04:25:00,69.9,69.6,29.71,South,184,2.0,4.0,99,0.00,,,0.00,VWS V14.01,2013-09-03 08:25:00,
2013-09-03 04:30:00,69.9,69.6,29.71,SE,138,3.0,6.0,99,0.00,,,0.00,VWS V14.01,2013-09-03 08:30:00,
2013-09-03 04:35:00,69.8,69.5,29.71,SSW,207,2.0,6.0,99,0.00,,,0.00,VWS V14.01,2013-09-03 08:35:00,
2013-09-03 04:40:00,69.8,69.5,29.71,WSW,242,1.0,4.0,99,0.00,,,0.00,VWS V14.01,2013-09-03 08:40:00,
2013-09-03 04:45:00,69.8,69.5,29.71,West,271,2.0,7.0,99,0.00,,,0.00,VWS V14.01,2013-09-03 08:45:00,
2013-09-03 04:50:00,69.9,69.6,29.72,WNW,292,2.0,3.0,99,0.00,,,0.00,VWS V14.01,2013-09-03 08:50:00,
2013-09-03 04:55:00,69.9,69.6,29.72,WSW,252,2.0,4.0,99,0.00,,,0.00,VWS V14.01,2013-09-03 08:55:00,
2013-09-03 05:00:00,69.9,69.6,29.72,WSW,249,3.0,4.0,99,0.00,,,0.00,VWS V14.01,2013-09-03 09:00:00,
2013-09-03 05:05:00,70.0,69.7,29.72,WSW,246,1.0,5.0,99,0.00,,,0.00,VWS V14.01,2013-09-03 09:05:00,
2013-09-03 05:10:00,70.0,69.7,29.72,West,280,0.0,1.0,99,0.00,,,0.00,VWS V14.01,2013-09-03 09:10:00,
2013-09-03 05:15:00,70.0,69.7,29.72,SW,235,1.0,3.0,99,0.00,,,0.00,VWS V14.01,2013-09-03 09:15:00,
2013-09-03 05:20:00,70.1,69.8,29.73,West,259,5.0,6.0,99,0.00,,,0.00,VWS V14.01,2013-09-03 09:20:00,
2013-09-03 05:25:00,70.1,69.8,29.73,WNW,287,4.0,6.0,99,0.00,,,0.00,VWS V14.01,2013-09-03 09:25:00,
2013-09-03 05:30:00,70.2,69.9,29.73,West,267,0.0,1.0,99,0.00,,,0.00,VWS V14.01,2013-09-03 09:30:00,
2013-09-03 05:35:00,70.2,69.9,29.73,West,270,0.0,5.0,99,0.00,,,0.00,VWS V14.01,2013-09-03 09:35:00,
2013-09-03 05:40:00,70.2,69.9,29.73,NW,312,0.0,3.0,99,0.00,,,0.00,VWS V14.01,2013-09-03 09:40:00,
2013-09-03 05:45:00,70.3,70.0,29.74,West,262,1.0,7.0,99,0.00,,,0.00,VWS V14.01,2013-09-03 09:45:00,
2013-09-03 05:50:00,70.3,70.0,29.74,West,271,3.0,6.0,99,0.00,,,0.00,VWS V14.01,2013-09-03 09:50:00,
2013-09-03 05:55:00,70.3,70.0,29.74,West,273,2.0,7.0,99,0.00,,,0.00,VWS V14.01,2013-09-03 09:55:00,
2013-09-03 06:00:00,70.4,70.1,29.75,West,280,2.0,3.0,99,0.00,,,0.00,VWS V14.01,2013-09-03 10:00:00,
2013-09-03 06:05:00,70.4,70.1,29.75,WNW,295,1.0,6.0,99,0.00,,,0.00,VWS V14.01,2013-09-03 10:05:00,
2013-09-03 06:10:00,70.4,70.1,29.75,WNW,291,3.0,7.0,99,0.00,,,0.00,VWS V14.01,2013-09-03 10:10:00,
2013-09-03 06:15:00,70.4,70.1,29.75,SW,226,3.0,7.0,99,0.00,,,0.00,VWS V14.01,2013-09-03 10:15:00,
2013-09-03 06:20:00,70.5,70.2,29.75,WNW,284,2.0,6.0,99,0.00,,,0.00,VWS V14.01,2013-09-03 10:20:00,
2013-09-03 06:25:00,70.5,70.2,29.75,WNW,287,3.0,6.0,99,0.00,,,0.00,VWS V14.01,2013-09-03 10:25:00,
2013-09-03 06:30:00,70.5,70.2,29.75,WNW,282,0.0,4.0,99,0.00,,,0.00,VWS V14.01,2013-09-03 10:30:00,
2013-09-03 06:35:00,70.5,70.2,29.75,West,269,0.0,4.0,99,0.00,,,0.00,VWS V14.01,2013-09-03 10:35:00,
2013-09-03 06:40:00,70.6,70.3,29.75,West,269,0.0,0.0,99,0.00,,,0.00,VWS V14.01,2013-09-03 10:40:00,
2013-09-03 06:45:00,70.7,70.4,29.76,WNW,285,1.0,2.0,99,0.00,,,0.00,VWS V14.01,2013-09-03 10:45:00,
2013-09-03 06:50:00,70.7,70.4,29.75,WSW,256,0.0,0.0,99,0.00,,,0.00,VWS V14.01,2013-09-03 10:50:00,
2013-09-03 06:55:00,70.7,70.4,29.76,West,277,2.0,2.0,99,0.00,,,0.00,VWS V14.01,2013-09-03 10:55:00,
2013-09-03 07:00:00,70.8,70.5,29.76,WSW,254,0.0,1.0,99,0.00,,,0.00,VWS V14.01,2013-09-03 11:00:00,
2013-09-03 07:05:00,70.9,70.6,29.76,NW,324,1.0,2.0,99,0.00,,,0.00,VWS V14.01,2013-09-03 11:05:00,
2013-09-03 07:10:00,71.0,70.7,29.76,WSW,252,1.0,1.0,99,0.00,,,0.00,VWS V14.01,2013-09-03 11:10:00,
2013-09-03 07:15:00,71.0,70.7,29.76,West,274,0.0,3.0,99,0.00,,,0.00,VWS V14.01,2013-09-03 11:15:00,
2013-09-03 07:20:00,71.1,70.8,29.76,SSW,203,1.0,1.0,99,0.00,,,0.00,VWS V14.01,2013-09-03 11:20:00,
2013-09-03 07:25:00,71.3,71.0,29.77,WSW,248,1.0,3.0,99,0.00,,,0.00,VWS V14.01,2013-09-03 11:25:00,
2013-09-03 07:30:00,71.3,70.7,29.77,SSW,208,1.0,4.0,98,0.00,,,0.00,VWS V14.01,2013-09-03 11:30:00,
2013-09-03 07:35:00,71.4,70.8,29.77,SSW,197,1.0,4.0,98,0.00,,,0.00,VWS V14.01,2013-09-03 11:35:00,
2013-09-03 07:40:00,71.6,71.0,29.77,West,269,1.0,1.0,98,0.00,,,0.00,VWS V14.01,2013-09-03 11:40:00,
2013-09-03 07:45:00,71.7,70.8,29.77,WSW,255,4.0,5.0,97,0.00,,,0.00,VWS V14.01,2013-09-03 11:45:00,
2013-09-03 07:50:00,71.8,70.9,29.77,West,260,0.0,1.0,97,0.00,,,0.00,VWS V14.01,2013-09-03 11:50:00,
2013-09-03 07:55:00,72.0,71.1,29.78,West,266,0.0,4.0,97,0.00,,,0.00,VWS V14.01,2013-09-03 11:55:00,
2013-09-03 08:00:00,72.3,71.4,29.78,SSW,210,0.0,2.0,97,0.00,,,0.00,VWS V14.01,2013-09-03 12:00:00,
2013-09-03 08:05:00,72.5,71.3,29.77,WSW,249,0.0,3.0,96,0.00,,,0.00,VWS V14.01,2013-09-03 12:05:00,
2013-09-03 08:10:00,72.9,71.7,29.78,SW,229,2.0,3.0,96,0.00,,,0.00,VWS V14.01,2013-09-03 12:10:00,
2013-09-03 08:15:00,73.3,71.8,29.78,WNW,301,2.0,3.0,95,0.00,,,0.00,VWS V14.01,2013-09-03 12:15:00,
2013-09-03 08:20:00,73.5,71.7,29.78,WNW,283,2.0,2.0,94,0.00,,,0.00,VWS V14.01,2013-09-03 12:20:00,
2013-09-03 08:25:00,73.4,71.3,29.78,West,271,2.0,6.0,93,0.00,,,0.00,VWS V14.01,2013-09-03 12:25:00,
2013-09-03 08:30:00,73.3,71.2,29.78,WSW,256,1.0,2.0,93,0.00,,,0.00,VWS V14.01,2013-09-03 12:30:00,
2013-09-03 08:35:00,73.5,71.4,29.78,West,275,1.0,5.0,93,0.00,,,0.00,VWS V14.01,2013-09-03 12:35:00,
2013-09-03 08:40:00,73.7,71.6,29.78,SSW,203,1.0,3.0,93,0.00,,,0.00,VWS V14.01,2013-09-03 12:40:00,
2013-09-03 08:45:00,73.9,71.1,29.78,WNW,295,3.0,9.0,91,0.00,,,0.00,VWS V14.01,2013-09-03 12:45:00,
2013-09-03 08:50:00,74.2,71.4,29.78,West,262,2.0,5.0,91,0.00,,,0.00,VWS V14.01,2013-09-03 12:50:00,
2013-09-03 08:55:00,74.6,71.8,29.78,SSW,205,3.0,5.0,91,0.00,,,0.00,VWS V14.01,2013-09-03 12:55:00,
2013-09-03 09:00:00,75.0,71.9,29.78,WSW,252,2.0,2.0,90,0.00,,BKN010,0.00,VWS V14.01,2013-09-03 13:00:00,
2013-09-03 09:05:00,75.0,71.5,29.78,West,278,3.0,5.0,89,0.00,,BKN010,0.00,VWS V14.01,2013-09-03 13:05:00,
2013-09-03 09:10:00,75.2,71.7,29.78,West,276,2.0,3.0,89,0.00,,BKN010,0.00,VWS V14.01,2013-09-03 13:10:00,
2013-09-03 09:15:00,75.3,71.8,29.78,West,273,2.0,6.0,89,0.00,,BKN010,0.00,VWS V14.01,2013-09-03 13:15:00,
2013-09-03 09:20:00,75.3,71.5,29.78,West,277,3.0,4.0,88,0.00,,BKN010,0.00,VWS V14.01,2013-09-03 13:20:00,
2013-09-03 09:25:00,75.2,71.7,29.78,WSW,253,2.0,7.0,89,0.00,,BKN010,0.00,VWS V14.01,2013-09-03 13:25:00,
2013-09-03 09:30:00,75.6,72.1,29.78,SSW,207,3.0,3.0,89,0.00,,BKN010,0.00,VWS V14.01,2013-09-03 13:30:00,
2013-09-03 09:35:00,75.9,72.1,29.78,SW,221,4.0,5.0,88,0.00,,BKN010,0.00,VWS V14.01,2013-09-03 13:35:00,
2013-09-03 09:40:00,76.1,71.9,29.78,WNW,292,3.0,4.0,87,0.00,,BKN010,0.00,VWS V14.01,2013-09-03 13:40:00,
2013-09-03 09:45:00,76.5,72.0,29.78,WNW,288,3.0,6.0,86,0.00,,BKN010,0.00,VWS V14.01,2013-09-03 13:45:00,
2013-09-03 09:50:00,76.6,72.4,29.78,NW,316,1.0,2.0,87,0.00,,BKN010,0.00,VWS V14.01,2013-09-03 13:50:00,
2013-09-03 09:55:00,76.9,72.4,29.78,NNE,23,0.0,4.0,86,0.00,,BKN010,0.00,VWS V14.01,2013-09-03 13:55:00,
2013-09-03 10:00:00,77.0,72.2,29.78,NNW,333,1.0,2.0,85,0.00,,SCT012,0.00,VWS V14.01,2013-09-03 14:00:00,
2013-09-03 10:05:00,77.2,72.7,29.78,West,264,4.0,6.0,86,0.00,,SCT012,0.00,VWS V14.01,2013-09-03 14:05:00,
2013-09-03 10:10:00,77.2,72.0,29.78,West,266,2.0,2.0,84,0.00,,SCT012,0.00,VWS V14.01,2013-09-03 14:10:00,
2013-09-03 10:15:00,77.2,72.0,29.78,West,262,0.0,2.0,84,0.00,,SCT012,0.00,VWS V14.01,2013-09-03 14:15:00,
2013-09-03 10:20:00,77.5,72.3,29.78,West,281,3.0,3.0,84,0.00,,SCT012,0.00,VWS V14.01,2013-09-03 14:20:00,
2013-09-03 10:25:00,77.6,72.4,29.78,WSW,256,3.0,4.0,84,0.00,,SCT012,0.00,VWS V14.01,2013-09-03 14:25:00,
2013-09-03 10:30:00,78.0,73.1,29.78,SSE,162,6.0,6.0,85,0.00,,SCT012,0.00,VWS V14.01,2013-09-03 14:30:00,
2013-09-03 10:35:00,77.2,72.7,29.78,SE,124,5.0,8.0,86,0.00,,SCT012,0.00,VWS V14.01,2013-09-03 14:35:00,
2013-09-03 10:40:00,76.5,72.3,29.78,ESE,119,5.0,7.0,87,0.00,,SCT012,0.00,VWS V14.01,2013-09-03 14:40:00,
2013-09-03 10:45:00,76.0,71.9,29.78,South,172,4.0,8.0,87,0.00,,SCT012,0.00,VWS V14.01,2013-09-03 14:45:00,
2013-09-03 10:50:00,75.8,72.0,29.78,SSE,148,3.0,3.0,88,0.00,,SCT012,0.00,VWS V14.01,2013-09-03 14:50:00,
2013-09-03 10:55:00,75.5,72.4,29.78,South,187,3.0,5.0,90,0.00,,SCT012,0.00,VWS V14.01,2013-09-03 14:55:00,
2013-09-03 11:00:00,75.8,72.3,29.78,SSW,200,2.0,3.0,89,0.00,,BKN028,0.00,VWS V14.01,2013-09-03 15:00:00,
2013-09-03 11:05:00,76.0,72.5,29.78,ESE,115,4.0,7.0,89,0.00,,BKN028,0.00,VWS V14.01,2013-09-03 15:05:00,
2013-09-03 11:10:00,76.2,73.1,29.78,ESE,117,2.0,2.0,90,0.00,,BKN028,0.00,VWS V14.01,2013-09-03 15:10:00,
2013-09-03 11:15:00,76.8,72.6,29.78,SSE,162,4.0,9.0,87,0.00,,BKN028,0.00,VWS V14.01,2013-09-03 15:15:00,
2013-09-03 11:20:00,76.8,73.0,29.77,East,96,2.0,3.0,88,0.00,,BKN028,0.00,VWS V14.01,2013-09-03 15:20:00,
2013-09-03 11:25:00,77.1,72.9,29.77,SE,138,2.0,7.0,87,0.00,,BKN028,0.00,VWS V14.01,2013-09-03 15:25:00,
2013-09-03 11:30:00,77.7,73.5,29.77,SSE,163,4.0,5.0,87,0.00,,BKN028,0.00,VWS V14.01,2013-09-03 15:30:00,
2013-09-03 11:35:00,78.0,73.1,29.76,SSE,163,1.0,9.0,85,0.00,,BKN028,0.00,VWS V14.01,2013-09-03 15:35:00,
2013-09-03 11:40:00,78.6,73.4,29.76,South,172,3.0,6.0,84,0.00,,BKN028,0.00,VWS V14.01,2013-09-03 15:40:00,
2013-09-03 11:45:00,78.6,73.0,29.75,SSW,211,4.0,8.0,83,0.00,,BKN028,0.00,VWS V14.01,2013-09-03 15:45:00,
2013-09-03 11:50:00,78.0,72.8,29.75,South,190,3.0,6.0,84,0.00,,BKN028,0.00,VWS V14.01,2013-09-03 15:50:00,
2013-09-03 11:55:00,76.8,71.9,29.75,SE,135,3.0,9.0,85,0.00,,BKN028,0.00,VWS V14.01,2013-09-03 15:55:00,
2013-09-03 12:00:00,75.9,71.8,29.75,SSE,153,6.0,6.0,87,0.00,,BKN028,0.00,VWS V14.01,2013-09-03 16:00:00,
2013-09-03 12:05:00,75.6,71.8,29.75,SSW,207,2.0,8.0,88,0.00,,BKN024,0.00,VWS V14.01,2013-09-03 16:05:00,
2013-09-03 12:10:00,75.9,72.4,29.75,SW,224,3.0,3.0,89,0.00,,BKN024,0.00,VWS V14.01,2013-09-03 16:10:00,
2013-09-03 12:15:00,76.3,72.2,29.76,SSE,154,7.0,9.0,87,0.00,,BKN024,0.00,VWS V14.01,2013-09-03 16:15:00,
2013-09-03 12:20:00,76.7,72.2,29.77,South,183,7.0,8.0,86,0.00,,BKN024,0.00,VWS V14.01,2013-09-03 16:20:00,
2013-09-03 12:25:00,76.6,72.1,29.77,ESE,110,4.0,12.0,86,0.00,,BKN024,0.00,VWS V14.01,2013-09-03 16:25:00,
2013-09-03 12:30:00,76.3,72.2,29.77,SE,135,3.0,3.0,87,0.00,,BKN024,0.00,VWS V14.01,2013-09-03 16:30:00,
2013-09-03 12:35:00,76.1,71.6,29.78,SE,125,2.0,9.0,86,0.00,,BKN024,0.00,VWS V14.01,2013-09-03 16:35:00,
2013-09-03 12:40:00,75.9,72.1,29.77,SSW,210,2.0,2.0,88,0.00,,BKN024,0.00,VWS V14.01,2013-09-03 16:40:00,
2013-09-03 12:45:00,75.9,72.1,29.76,ESE,112,2.0,5.0,88,0.00,,BKN024,0.00,VWS V14.01,2013-09-03 16:45:00,
2013-09-03 12:50:00,76.4,72.6,29.77,SSE,163,1.0,2.0,88,0.00,,BKN024,0.00,VWS V14.01,2013-09-03 16:50:00,
2013-09-03 12:55:00,77.0,72.5,29.77,South,188,8.0,8.0,86,0.00,,BKN024,0.00,VWS V14.01,2013-09-03 16:55:00,
2013-09-03 13:00:00,76.8,72.3,29.77,SE,136,2.0,2.0,86,0.00,,BKN024,0.00,VWS V14.01,2013-09-03 17:00:00,
2013-09-03 13:05:00,76.6,72.1,29.77,SSW,200,1.0,7.0,86,0.00,,BKN055,0.00,VWS V14.01,2013-09-03 17:05:00,
2013-09-03 13:10:00,76.5,72.3,29.76,SSW,208,3.0,5.0,87,0.00,,BKN055,0.00,VWS V14.01,2013-09-03 17:10:00,
2013-09-03 13:15:00,76.3,72.5,29.76,SSW,211,3.0,7.0,88,0.00,,BKN055,0.00,VWS V14.01,2013-09-03 17:15:00,
2013-09-03 13:20:00,76.0,72.5,29.77,SE,141,4.0,4.0,89,0.00,,BKN055,0.00,VWS V14.01,2013-09-03 17:20:00,
2013-09-03 13:25:00,75.6,72.5,29.77,SE,141,3.0,7.0,90,0.00,,BKN055,0.00,VWS V14.01,2013-09-03 17:25:00,
2013-09-03 13:30:00,74.9,72.1,29.76,East,99,3.0,3.0,91,0.00,,BKN055,0.00,VWS V14.01,2013-09-03 17:30:00,
2013-09-03 13:35:00,74.3,71.5,29.76,SSE,160,5.0,10.0,91,0.00,,BKN055,0.00,VWS V14.01,2013-09-03 17:35:00,
2013-09-03 13:40:00,73.7,71.6,29.76,SSE,159,10.0,10.0,93,0.00,,BKN055,0.00,VWS V14.01,2013-09-03 17:40:00,
2013-09-03 13:45:00,73.2,71.4,29.75,East,79,3.0,11.0,94,0.01,,BKN055,0.01,VWS V14.01,2013-09-03 17:45:00,
2013-09-03 13:50:00,72.8,71.3,29.76,SSW,195,4.0,4.0,95,0.01,,BKN055,0.01,VWS V14.01,2013-09-03 17:50:00,
2013-09-03 13:54:00,72.4,70.9,29.76,South,190,8.0,9.0,95,0.01,,-RA,0.01,VWS V14.01,2013-09-03 17:54:00,
2013-09-03 13:59:00,71.9,70.7,29.76,WSW,248,6.0,12.0,96,0.01,,-RA,0.01,VWS V14.01,2013-09-03 17:59:00,
2013-09-03 14:00:00,71.9,70.7,29.76,WSW,248,6.0,12.0,96,0.01,,OVC038,0.01,VWS V14.01,2013-09-03 18:00:00,
2013-09-03 14:04:00,71.6,70.4,29.75,ESE,110,7.0,7.0,96,0.02,,-RA,0.02,VWS V14.01,2013-09-03 18:04:00,
2013-09-03 14:09:00,71.3,70.1,29.73,East,98,4.0,5.0,96,0.03,,-RA,0.03,VWS V14.01,2013-09-03 18:09:00,
2013-09-03 14:10:00,71.3,70.1,29.73,ENE,78,5.0,7.0,96,0.03,,OVC038,0.03,VWS V14.01,2013-09-03 18:10:00,
2013-09-03 14:14:00,71.1,70.2,29.75,West,276,2.0,5.0,97,0.04,,-RA,0.04,VWS V14.01,2013-09-03 18:14:00,
2013-09-03 14:19:00,70.9,70.0,29.76,SW,229,0.0,6.0,97,0.05,,-RA,0.05,VWS V14.01,2013-09-03 18:19:00,
2013-09-03 14:20:00,70.9,70.0,29.76,SW,229,0.0,6.0,97,0.05,,OVC038,0.05,VWS V14.01,2013-09-03 18:20:00,
2013-09-03 14:24:00,70.9,70.0,29.75,ESE,108,3.0,3.0,97,0.06,,RA,0.06,VWS V14.01,2013-09-03 18:24:00,
2013-09-03 14:29:00,71.0,70.4,29.75,SSE,148,5.0,5.0,98,0.07,,RA,0.07,VWS V14.01,2013-09-03 18:29:00,
2013-09-03 14:30:00,71.0,70.4,29.75,South,177,5.0,5.0,98,0.07,,OVC038,0.07,VWS V14.01,2013-09-03 18:30:00,
2013-09-03 14:34:00,71.0,70.4,29.74,SSE,153,2.0,7.0,98,0.08,,RA,0.08,VWS V14.01,2013-09-03 18:34:00,
2013-09-03 14:39:00,71.1,70.5,29.75,West,263,1.0,7.0,98,0.08,,RA,0.08,VWS V14.01,2013-09-03 18:39:00,
2013-09-03 14:40:00,71.1,70.5,29.75,West,259,1.0,7.0,98,0.08,,OVC038,0.08,VWS V14.01,2013-09-03 18:40:00,
2013-09-03 14:44:00,71.2,70.6,29.74,South,174,3.0,6.0,98,0.09,,RA,0.09,VWS V14.01,2013-09-03 18:44:00,
2013-09-03 14:49:00,71.3,70.7,29.74,SSW,197,0.0,6.0,98,0.09,,RA,0.09,VWS V14.01,2013-09-03 18:49:00,
2013-09-03 14:50:00,71.3,70.7,29.74,SSW,197,0.0,6.0,98,0.09,,OVC038,0.09,VWS V14.01,2013-09-03 18:50:00,
2013-09-03 14:54:00,71.4,70.8,29.75,SSW,200,3.0,7.0,98,0.09,,RA,0.10,VWS V14.01,2013-09-03 18:54:00,
2013-09-03 14:59:00,71.4,70.8,29.75,SSE,167,5.0,13.0,98,0.09,,RA,0.10,VWS V14.01,2013-09-03 18:59:00,
2013-09-03 15:00:00,71.4,70.8,29.75,South,169,4.0,13.0,98,0.09,,OVC038,0.10,VWS V14.01,2013-09-03 19:00:00,
2013-09-03 15:04:00,71.4,70.8,29.74,ENE,60,0.0,4.0,98,0.10,,-RA,0.11,VWS V14.01,2013-09-03 19:04:00,
2013-09-03 15:09:00,71.4,70.8,29.74,West,278,0.0,6.0,98,0.11,,-RA,0.12,VWS V14.01,2013-09-03 19:09:00,
2013-09-03 15:10:00,71.4,70.8,29.74,West,269,0.0,6.0,98,0.11,,OVC038,0.12,VWS V14.01,2013-09-03 19:10:00,
2013-09-03 15:14:00,71.4,70.8,29.73,SSE,165,2.0,3.0,98,0.09,,-RA,0.12,VWS V14.01,2013-09-03 19:14:00,
2013-09-03 15:19:00,71.4,70.8,29.74,SSE,162,4.0,6.0,98,0.09,,-RA,0.12,VWS V14.01,2013-09-03 19:19:00,
2013-09-03 15:20:00,71.4,70.8,29.74,SSE,160,4.0,6.0,98,0.09,,OVC038,0.12,VWS V14.01,2013-09-03 19:20:00,
2013-09-03 15:24:00,71.3,70.7,29.76,WNW,291,7.0,7.0,98,0.07,,,0.12,VWS V14.01,2013-09-03 19:24:00,
2013-09-03 15:29:00,71.3,70.7,29.77,West,281,4.0,10.0,98,0.08,,,0.13,VWS V14.01,2013-09-03 19:29:00,
2013-09-03 15:30:00,71.3,70.7,29.77,WNW,294,5.0,10.0,98,0.08,,OVC038,0.13,VWS V14.01,2013-09-03 19:30:00,
2013-09-03 15:34:00,71.2,70.6,29.76,NNW,330,7.0,7.0,98,0.06,,,0.13,VWS V14.01,2013-09-03 19:34:00,
2013-09-03 15:39:00,71.0,70.1,29.76,WSW,250,3.0,8.0,97,0.06,,,0.13,VWS V14.01,2013-09-03 19:39:00,
2013-09-03 15:40:00,71.0,70.1,29.76,West,260,2.0,8.0,97,0.06,,OVC038,0.13,VWS V14.01,2013-09-03 19:40:00,
2013-09-03 15:44:00,70.7,69.8,29.76,West,267,1.0,4.0,97,0.06,,,0.14,VWS V14.01,2013-09-03 19:44:00,
2013-09-03 15:49:00,70.7,69.8,29.77,SSW,205,4.0,8.0,97,0.06,,,0.14,VWS V14.01,2013-09-03 19:49:00,
2013-09-03 15:50:00,70.7,69.8,29.77,South,172,3.0,8.0,97,0.06,,OVC038,0.14,VWS V14.01,2013-09-03 19:50:00,
2013-09-03 15:54:00,70.5,69.3,29.76,SSE,155,8.0,18.0,96,0.18,,,0.27,VWS V14.01,2013-09-03 19:54:00,
2013-09-03 15:59:00,69.3,66.9,29.76,SSW,197,9.0,18.0,92,0.23,,,0.32,VWS V14.01,2013-09-03 19:59:00,
2013-09-03 16:00:00,69.3,66.9,29.76,ESE,120,7.0,18.0,92,0.23,,OVC038,0.32,VWS V14.01,2013-09-03 20:00:00,
2013-09-03 16:04:00,68.5,66.1,29.77,SSE,162,12.0,14.0,92,0.33,,OVC110,0.43,VWS V14.01,2013-09-03 20:04:00,
2013-09-03 16:09:00,67.9,65.8,29.77,SSW,207,2.0,14.0,93,0.38,,OVC110,0.48,VWS V14.01,2013-09-03 20:09:00,
2013-09-03 16:10:00,67.9,65.8,29.77,SSW,212,3.0,14.0,93,0.38,,OVC038,0.48,VWS V14.01,2013-09-03 20:10:00,
2013-09-03 16:14:00,67.6,65.8,29.77,NW,323,0.0,3.0,94,0.38,,,0.50,VWS V14.01,2013-09-03 20:14:00,
2013-09-03 16:19:00,67.4,65.9,29.76,North,349,0.0,3.0,95,0.39,,,0.51,VWS V14.01,2013-09-03 20:19:00,
2013-09-03 16:20:00,67.4,65.9,29.76,NNW,348,0.0,3.0,95,0.39,,OVC038,0.51,VWS V14.01,2013-09-03 20:20:00,
2013-09-03 16:24:00,67.3,65.8,29.76,NW,305,3.0,3.0,95,0.40,,,0.52,VWS V14.01,2013-09-03 20:24:00,
2013-09-03 16:29:00,67.2,66.0,29.76,NNE,30,1.0,3.0,96,0.42,,,0.54,VWS V14.01,2013-09-03 20:29:00,
2013-09-03 16:30:00,67.2,66.0,29.76,NNE,30,1.0,3.0,96,0.42,,OVC038,0.54,VWS V14.01,2013-09-03 20:30:00,
2013-09-03 16:34:00,67.2,66.0,29.77,SSW,208,1.0,1.0,96,0.42,,,0.55,VWS V14.01,2013-09-03 20:34:00,
2013-09-03 16:39:00,67.3,66.4,29.77,SW,232,1.0,1.0,97,0.43,,,0.56,VWS V14.01,2013-09-03 20:39:00,
2013-09-03 16:40:00,67.3,66.4,29.77,West,263,1.0,1.0,97,0.43,,OVC038,0.56,VWS V14.01,2013-09-03 20:40:00,
2013-09-03 16:44:00,67.3,66.4,29.76,NW,324,1.0,2.0,97,0.45,,,0.58,VWS V14.01,2013-09-03 20:44:00,
2013-09-03 16:49:00,67.3,66.4,29.75,NNW,345,0.0,2.0,97,0.46,,,0.59,VWS V14.01,2013-09-03 20:49:00,
2013-09-03 16:50:00,67.3,66.4,29.75,NNW,345,0.0,2.0,97,0.46,,OVC038,0.59,VWS V14.01,2013-09-03 20:50:00,
2013-09-03 16:54:00,67.3,66.4,29.75,NNE,28,0.0,1.0,97,0.47,,,0.61,VWS V14.01,2013-09-03 20:54:00,
2013-09-03 16:59:00,67.5,66.6,29.75,South,169,0.0,2.0,97,0.48,,,0.62,VWS V14.01,2013-09-03 20:59:00,
2013-09-03 17:00:00,67.5,66.6,29.75,South,170,0.0,2.0,97,0.48,,OVC038,0.62,VWS V14.01,2013-09-03 21:00:00,
2013-09-03 17:04:00,67.6,67.0,29.76,SSW,196,1.0,1.0,98,0.30,,,0.62,VWS V14.01,2013-09-03 21:04:00,
2013-09-03 17:09:00,67.6,67.0,29.77,SSE,154,2.0,2.0,98,0.31,,,0.63,VWS V14.01,2013-09-03 21:09:00,
2013-09-03 17:10:00,67.6,67.0,29.77,SE,128,0.0,2.0,98,0.31,,OVC038,0.63,VWS V14.01,2013-09-03 21:10:00,
2013-09-03 17:14:00,67.6,66.7,29.75,SE,125,1.0,4.0,97,0.22,,,0.70,VWS V14.01,2013-09-03 21:14:00,
2013-09-03 17:19:00,67.6,67.0,29.75,SE,142,3.0,4.0,98,0.27,,,0.75,VWS V14.01,2013-09-03 21:19:00,
2013-09-03 17:20:00,67.6,67.0,29.75,SSE,158,3.0,4.0,98,0.28,,OVC038,0.76,VWS V14.01,2013-09-03 21:20:00,
2013-09-03 17:24:00,67.6,67.0,29.76,South,184,3.0,9.0,98,0.35,,,0.86,VWS V14.01,2013-09-03 21:24:00,
2013-09-03 17:29:00,67.6,67.0,29.76,SSW,207,0.0,9.0,98,0.47,,,0.98,VWS V14.01,2013-09-03 21:29:00,
2013-09-03 17:30:00,67.6,67.0,29.76,ENE,73,0.0,9.0,98,0.47,,OVC038,0.98,VWS V14.01,2013-09-03 21:30:00,
2013-09-03 17:34:00,67.6,67.0,29.75,SSW,208,1.0,4.0,98,0.57,,,1.11,VWS V14.01,2013-09-03 21:34:00,
2013-09-03 17:39:00,67.7,67.1,29.75,ESE,105,0.0,4.0,98,0.70,,,1.24,VWS V14.01,2013-09-03 21:39:00,
2013-09-03 17:40:00,67.7,67.1,29.75,ESE,106,0.0,4.0,98,0.71,,OVC038,1.25,VWS V14.01,2013-09-03 21:40:00,
2013-09-03 17:44:00,67.8,67.2,29.75,SSE,150,3.0,3.0,98,0.83,,,1.39,VWS V14.01,2013-09-03 21:44:00,
2013-09-03 17:49:00,67.7,67.1,29.75,SSE,165,4.0,7.0,98,0.95,,,1.51,VWS V14.01,2013-09-03 21:49:00,
2013-09-03 17:50:00,67.7,67.1,29.75,ESE,114,3.0,7.0,98,0.96,,OVC038,1.52,VWS V14.01,2013-09-03 21:50:00,
2013-09-03 17:54:00,67.7,67.1,29.75,ESE,102,3.0,6.0,98,1.02,,,1.61,VWS V14.01,2013-09-03 21:54:00,
2013-09-03 17:59:00,67.7,67.1,29.75,SE,137,3.0,6.0,98,1.14,,,1.73,VWS V14.01,2013-09-03 21:59:00,
2013-09-03 18:00:00,67.7,67.1,29.75,SSE,160,0.0,6.0,98,1.15,,OVC038,1.74,VWS V14.01,2013-09-03 22:00:00,
2013-09-03 18:04:00,67.5,66.9,29.74,SE,142,2.0,4.0,98,1.19,,,1.81,VWS V14.01,2013-09-03 22:04:00,
2013-09-03 18:09:00,67.5,66.9,29.74,ESE,104,1.0,5.0,98,1.20,,,1.82,VWS V14.01,2013-09-03 22:09:00,
2013-09-03 18:10:00,67.5,66.9,29.74,South,186,2.0,5.0,98,1.20,,OVC038,1.82,VWS V14.01,2013-09-03 22:10:00,
2013-09-03 18:14:00,67.4,66.8,29.75,SE,126,3.0,5.0,98,1.30,,,1.93,VWS V14.01,2013-09-03 22:14:00,
2013-09-03 18:19:00,67.5,66.9,29.75,SSE,160,2.0,5.0,98,1.35,,,1.98,VWS V14.01,2013-09-03 22:19:00,
2013-09-03 18:20:00,67.5,66.9,29.75,East,94,2.0,5.0,98,1.36,,OVC038,1.99,VWS V14.01,2013-09-03 22:20:00,
2013-09-03 18:24:00,67.5,66.9,29.75,ESE,122,1.0,3.0,98,1.40,,,2.16,VWS V14.01,2013-09-03 22:24:00,
2013-09-03 18:29:00,67.6,67.0,29.74,WNW,285,0.0,3.0,98,1.42,,,2.18,VWS V14.01,2013-09-03 22:29:00,
2013-09-03 18:30:00,67.6,67.0,29.74,WNW,285,0.0,3.0,98,1.42,,OVC038,2.18,VWS V14.01,2013-09-03 22:30:00,
2013-09-03 18:34:00,67.8,67.5,29.74,South,172,4.0,5.0,99,1.20,,,2.18,VWS V14.01,2013-09-03 22:34:00,
2013-09-03 18:39:00,67.9,67.6,29.75,SSE,166,2.0,5.0,99,1.20,,,2.18,VWS V14.01,2013-09-03 22:39:00,
2013-09-03 18:40:00,67.9,67.6,29.75,SSE,162,1.0,5.0,99,1.20,,OVC038,2.18,VWS V14.01,2013-09-03 22:40:00,
2013-09-03 18:44:00,68.0,67.7,29.75,SSW,195,2.0,3.0,99,0.93,,OVC060,2.18,VWS V14.01,2013-09-03 22:44:00,
2013-09-03 18:49:00,68.0,67.7,29.75,South,175,2.0,3.0,99,0.93,,OVC060,2.18,VWS V14.01,2013-09-03 22:49:00,
2013-09-03 18:50:00,68.0,67.7,29.75,SSE,162,1.0,3.0,99,0.93,,OVC038,2.18,VWS V14.01,2013-09-03 22:50:00,
2013-09-03 18:54:00,68.1,67.8,29.75,SW,218,4.0,4.0,99,0.66,,OVC050,2.18,VWS V14.01,2013-09-03 22:54:00,
2013-09-03 18:59:00,68.1,67.8,29.75,SSW,208,2.0,4.0,99,0.66,,OVC050,2.18,VWS V14.01,2013-09-03 22:59:00,
2013-09-03 19:00:00,68.0,67.7,29.75,South,177,3.0,4.0,99,0.66,,OVC038,2.18,VWS V14.01,2013-09-03 23:00:00,
2013-09-03 19:04:00,68.0,67.4,29.76,SW,221,1.0,3.0,98,0.44,,OVC044,2.18,VWS V14.01,2013-09-03 23:04:00,
2013-09-03 19:09:00,68.0,67.4,29.76,WSW,250,2.0,4.0,98,0.44,,OVC044,2.18,VWS V14.01,2013-09-03 23:09:00,
2013-09-03 19:10:00,68.0,67.4,29.76,SW,221,2.0,4.0,98,0.44,,OVC038,2.18,VWS V14.01,2013-09-03 23:10:00,
2013-09-03 19:14:00,68.0,67.4,29.76,SE,145,1.0,3.0,98,0.36,,-RA,2.18,VWS V14.01,2013-09-03 23:14:00,
2013-09-03 19:19:00,68.1,67.5,29.76,WSW,242,0.0,3.0,98,0.36,,-RA,2.18,VWS V14.01,2013-09-03 23:19:00,
2013-09-03 19:20:00,68.1,67.5,29.76,WSW,242,0.0,3.0,98,0.36,,OVC038,2.18,VWS V14.01,2013-09-03 23:20:00,
2013-09-03 19:24:00,68.1,67.5,29.76,SW,219,4.0,5.0,98,0.19,,-RA,2.18,VWS V14.01,2013-09-03 23:24:00,
2013-09-03 19:29:00,68.2,67.6,29.76,WSW,255,2.0,6.0,98,0.19,,-RA,2.18,VWS V14.01,2013-09-03 23:29:00,
2013-09-03 19:30:00,68.2,67.6,29.76,SW,231,1.0,6.0,98,0.19,,OVC038,2.18,VWS V14.01,2013-09-03 23:30:00,
2013-09-03 19:34:00,68.2,67.6,29.76,SW,232,1.0,2.0,98,0.00,,-RA,2.18,VWS V14.01,2013-09-03 23:34:00,
2013-09-03 19:39:00,68.2,67.6,29.77,WSW,246,0.0,3.0,98,0.00,,-RA,2.18,VWS V14.01,2013-09-03 23:39:00,
2013-09-03 19:40:00,68.2,67.6,29.77,WSW,240,2.0,3.0,98,0.00,,OVC038,2.18,VWS V14.01,2013-09-03 23:40:00,
2013-09-03 19:44:00,68.2,67.6,29.77,West,274,1.0,4.0,98,0.00,,OVC012,2.18,VWS V14.01,2013-09-03 23:44:00,
2013-09-03 19:49:00,68.2,67.6,29.77,West,259,2.0,4.0,98,0.00,,OVC012,2.18,VWS V14.01,2013-09-03 23:49:00,
2013-09-03 19:50:00,68.2,67.6,29.77,WSW,248,2.0,4.0,98,0.00,,OVC038,2.18,VWS V14.01,2013-09-03 23:50:00,
2013-09-03 19:54:00,68.3,67.7,29.77,SW,236,3.0,3.0,98,0.00,,OVC012,2.18,VWS V14.01,2013-09-03 23:54:00,
2013-09-03 19:59:00,68.3,67.7,29.78,WNW,287,2.0,5.0,98,0.00,,OVC012,2.18,VWS V14.01,2013-09-03 23:59:00,
2013-09-03 20:00:00,68.3,67.7,29.78,SSE,166,2.0,5.0,98,0.00,,OVC038,2.18,VWS V14.01,2013-09-04 00:00:00,
2013-09-03 20:04:00,68.4,67.8,29.78,West,269,2.0,4.0,98,0.00,,OVC012,2.18,VWS V14.01,2013-09-04 00:04:00,
2013-09-03 20:09:00,68.4,67.8,29.78,WSW,239,4.0,5.0,98,0.00,,OVC012,2.18,VWS V14.01,2013-09-04 00:09:00,
2013-09-03 20:10:00,68.4,67.8,29.78,WSW,252,5.0,5.0,98,0.00,,OVC038,2.18,VWS V14.01,2013-09-04 00:10:00,
2013-09-03 20:14:00,68.4,67.8,29.78,West,278,1.0,5.0,98,0.00,,OVC012,2.18,VWS V14.01,2013-09-04 00:14:00,
2013-09-03 20:19:00,68.4,67.8,29.78,SSW,208,1.0,5.0,98,0.00,,OVC012,2.18,VWS V14.01,2013-09-04 00:19:00,
2013-09-03 20:20:00,68.4,67.8,29.78,WSW,255,3.0,5.0,98,0.00,,OVC038,2.18,VWS V14.01,2013-09-04 00:20:00,
2013-09-03 20:24:00,68.4,67.8,29.78,SW,229,2.0,5.0,98,0.00,,OVC012,2.18,VWS V14.01,2013-09-04 00:24:00,
2013-09-03 20:29:00,68.5,67.9,29.78,WSW,255,0.0,5.0,98,0.00,,OVC012,2.18,VWS V14.01,2013-09-04 00:29:00,
2013-09-03 20:30:00,68.5,67.9,29.78,WSW,255,0.0,5.0,98,0.00,,OVC038,2.18,VWS V14.01,2013-09-04 00:30:00,
2013-09-03 20:34:00,68.5,68.2,29.78,WNW,285,0.0,6.0,99,0.00,,OVC012,2.18,VWS V14.01,2013-09-04 00:34:00,
2013-09-03 20:39:00,68.6,68.3,29.79,WSW,239,0.0,6.0,99,0.00,,OVC012,2.18,VWS V14.01,2013-09-04 00:39:00,
2013-09-03 20:40:00,68.5,68.2,29.79,WSW,239,0.0,6.0,99,0.00,,OVC038,2.18,VWS V14.01,2013-09-04 00:40:00,
2013-09-03 20:44:00,68.5,67.9,29.79,SW,224,0.0,1.0,98,0.00,,OVC012,2.18,VWS V14.01,2013-09-04 00:44:00,
2013-09-03 20:49:00,68.5,67.9,29.79,SW,215,0.0,1.0,98,0.00,,OVC012,2.18,VWS V14.01,2013-09-04 00:49:00,
2013-09-03 20:50:00,68.5,67.9,29.79,SW,217,0.0,1.0,98,0.00,,OVC038,2.18,VWS V14.01,2013-09-04 00:50:00,
2013-09-03 20:54:00,68.5,68.2,29.79,WSW,245,0.0,1.0,99,0.00,,OVC012,2.18,VWS V14.01,2013-09-04 00:54:00,
2013-09-03 20:59:00,68.5,67.9,29.80,WSW,246,0.0,1.0,98,0.00,,OVC012,2.18,VWS V14.01,2013-09-04 00:59:00,
2013-09-03 21:00:00,68.5,67.9,29.80,WSW,246,0.0,1.0,98,0.00,,OVC038,2.18,VWS V14.01,2013-09-04 01:00:00,
2013-09-03 21:04:00,68.4,68.1,29.80,SW,232,0.0,1.0,99,0.00,,BKN036,2.18,VWS V14.01,2013-09-04 01:04:00,
2013-09-03 21:09:00,68.4,68.1,29.80,SW,234,0.0,1.0,99,0.00,,BKN036,2.18,VWS V14.01,2013-09-04 01:09:00,
2013-09-03 21:10:00,68.4,68.1,29.80,SW,235,0.0,1.0,99,0.00,,OVC038,2.18,VWS V14.01,2013-09-04 01:10:00,
2013-09-03 21:14:00,68.3,68.0,29.80,SW,236,0.0,1.0,99,0.00,,BKN036,2.18,VWS V14.01,2013-09-04 01:14:00,
2013-09-03 21:18:00,68.3,68.0,29.80,SW,235,0.0,1.0,99,0.00,,BKN036,2.18,VWS V14.01,2013-09-04 01:18:00,
2013-09-03 21:20:00,68.3,68.0,29.80,SW,225,0.0,1.0,99,0.00,,BKN036,2.18,VWS V14.01,2013-09-04 01:20:00,
2013-09-03 21:30:00,68.1,67.8,29.81,SW,225,0.0,1.0,99,0.00,,BKN036,2.18,VWS V14.01,2013-09-04 01:30:00,
2013-09-03 21:40:00,67.9,67.6,29.81,SW,225,0.0,1.0,99,0.00,,BKN036,2.18,VWS V14.01,2013-09-04 01:40:00,
2013-09-03 21:50:00,67.8,67.5,29.81,SW,225,0.0,1.0,99,0.00,,BKN036,2.18,VWS V14.01,2013-09-04 01:50:00,
2013-09-03 22:00:00,67.7,67.4,29.82,SW,225,0.0,0.0,99,0.00,,BKN036,2.18,VWS V14.01,2013-09-04 02:00:00,
2013-09-03 22:10:00,68.4,68.1,29.80,SW,235,0.0,1.0,99,0.00,,CLR,2.18,VWS V14.01,2013-09-04 02:10:00,
2013-09-03 22:19:00,67.3,67.0,29.82,SW,235,0.0,0.0,99,0.00,,BKN036,2.18,VWS V14.01,2013-09-04 02:19:00,
2013-09-03 22:20:00,67.3,67.0,29.82,SW,235,0.0,0.0,99,0.00,,OVC038,2.18,VWS V14.01,2013-09-04 02:20:00,
2013-09-03 22:24:00,67.3,67.0,29.82,SW,235,0.0,1.0,99,0.00,,,2.18,VWS V14.01,2013-09-04 02:24:00,
2013-09-03 22:29:00,67.3,67.0,29.82,West,272,0.0,1.0,99,0.00,,,2.18,VWS V14.01,2013-09-04 02:29:00,
2013-09-03 22:30:00,67.3,67.0,29.82,West,273,0.0,1.0,99,0.00,,OVC038,2.18,VWS V14.01,2013-09-04 02:30:00,
2013-09-03 22:34:00,67.3,67.0,29.82,West,272,0.0,1.0,99,0.00,,,2.18,VWS V14.01,2013-09-04 02:34:00,
2013-09-03 22:39:00,67.2,66.9,29.82,West,273,0.0,1.0,99,0.00,,,2.18,VWS V14.01,2013-09-04 02:39:00,
2013-09-03 22:40:00,67.2,66.9,29.82,West,273,0.0,1.0,99,0.00,,OVC038,2.18,VWS V14.01,2013-09-04 02:40:00,
2013-09-03 22:44:00,67.1,66.8,29.82,North,1,0.0,1.0,99,0.00,,,2.18,VWS V14.01,2013-09-04 02:44:00,
2013-09-03 22:49:00,67.0,66.7,29.82,NW,316,0.0,3.0,99,0.00,,,2.18,VWS V14.01,2013-09-04 02:49:00,
2013-09-03 22:50:00,67.0,66.7,29.82,NW,316,0.0,3.0,99,0.00,,OVC038,2.18,VWS V14.01,2013-09-04 02:50:00,
2013-09-03 22:54:00,66.9,66.6,29.82,WNW,288,1.0,2.0,99,0.00,,,2.18,VWS V14.01,2013-09-04 02:54:00,
2013-09-03 22:59:00,66.7,66.1,29.82,West,276,1.0,2.0,98,0.00,,,2.18,VWS V14.01,2013-09-04 02:59:00,
2013-09-03 23:00:00,66.7,66.1,29.82,WNW,294,2.0,4.0,98,0.00,,OVC038,2.18,VWS V14.01,2013-09-04 03:00:00,
2013-09-03 23:04:00,66.7,66.1,29.82,WNW,297,0.0,3.0,98,0.00,,CLR,2.18,VWS V14.01,2013-09-04 03:04:00,
2013-09-03 23:09:00,66.6,66.0,29.82,SW,232,0.0,3.0,98,0.00,,CLR,2.18,VWS V14.01,2013-09-04 03:09:00,
2013-09-03 23:10:00,66.6,66.0,29.82,SW,232,0.0,3.0,98,0.00,,OVC038,2.18,VWS V14.01,2013-09-04 03:10:00,
2013-09-03 23:14:00,66.4,65.8,29.82,WSW,255,0.0,1.0,98,0.00,,CLR,2.18,VWS V14.01,2013-09-04 03:14:00,
2013-09-03 23:19:00,66.3,65.7,29.82,WSW,255,0.0,1.0,98,0.00,,CLR,2.18,VWS V14.01,2013-09-04 03:19:00,
2013-09-03 23:20:00,66.3,65.7,29.82,WSW,255,0.0,1.0,98,0.00,,OVC038,2.18,VWS V14.01,2013-09-04 03:20:00,
2013-09-03 23:24:00,66.0,65.4,29.82,WNW,297,0.0,1.0,98,0.00,,CLR,2.18,VWS V14.01,2013-09-04 03:24:00,
2013-09-03 23:29:00,65.9,65.3,29.82,WNW,298,0.0,1.0,98,0.00,,CLR,2.18,VWS V14.01,2013-09-04 03:29:00,
2013-09-03 23:30:00,65.8,65.2,29.82,WNW,297,0.0,1.0,98,0.00,,OVC038,2.18,VWS V14.01,2013-09-04 03:30:00,
2013-09-03 23:34:00,65.6,65.0,29.82,WNW,297,0.0,0.0,98,0.00,,CLR,2.18,VWS V14.01,2013-09-04 03:34:00,
2013-09-03 23:39:00,65.4,64.8,29.82,WNW,297,3.0,5.0,98,0.00,,CLR,2.18,VWS V14.01,2013-09-04 03:39:00,
2013-09-03 23:40:00,65.4,64.8,29.82,West,280,0.0,5.0,98,0.00,,OVC038,2.18,VWS V14.01,2013-09-04 03:40:00,
2013-09-03 23:44:00,65.2,64.6,29.82,WNW,283,1.0,4.0,98,0.00,,CLR,2.18,VWS V14.01,2013-09-04 03:44:00,
2013-09-03 23:49:00,65.2,64.3,29.82,NW,309,0.0,4.0,97,0.00,,CLR,2.18,VWS V14.01,2013-09-04 03:49:00,
2013-09-03 23:50:00,65.2,64.3,29.82,NW,323,0.0,4.0,97,0.00,,OVC038,2.18,VWS V14.01,2013-09-04 03:50:00,
2013-09-03 23:54:00,65.0,64.1,29.82,NW,316,2.0,4.0,97,0.00,,CLR,2.18,VWS V14.01,2013-09-04 03:54:00,
2013-09-03 23:59:00,64.9,63.7,29.82,WNW,302,1.0,4.0,96,0.00,,CLR,2.18,VWS V14.01,2013-09-04 03:59:00,